Terminal Aerodrome Forecast
Issued by NWS Grand Forks, ND

Home | Current Version | Previous Version | Graphics & Text | Print | Product List | Glossary On
Versions: 1 2 3 4 5 6 7 8 9 10 11 12 13 14
000
FTUS43 KFGF 162300
TAFFAR
TAF
KFAR 162323Z 1700/1724 05014KT P6SM BKN060
     FM170200 02010KT P6SM FEW060=

USA.gov is the U.S. government's official web portal to all federal, state and local government web resources and services.